Home > Weather > Gary > Past weeks

Flag for USA Past Weather in Gary, Indiana, USA — Yesterday and Last 2 Weeks

Now
77 °F

Passing clouds.


Feels Like: 79 °F
Forecast: 71 / 80 °F
Wind: 5 mph from Southwest

Location: Lansing Municipal Airport

Current Time: Aug 24, 2016 at 8:18:41 PM

Latest Report: Aug 24, 2016 at 7:55 PM


Visibility: 10 mi

Pressure: 29.97 "Hg

Humidity: 80%

Dew Point: 70 °F

Location of GaryLocation

Past Weather in Gary — Graph

°F

Gary Temperature Yesterday

Maximum temperature yesterday: 79 °F (at 3:35 PM)
Minimum temperature yesterday: 59 °F (at 4:15 AM)
Average temperature yesterday: 70 °F

High & Low Weather Summary for the Past Weeks

 TemperatureHumidityPressure
High90 °F (Aug 11, 3:55 PM)99% (Aug 13, 1:55 AM)30.24 "Hg (Aug 13, 1:55 AM)
Low51 °F (Aug 22, 5:55 AM)44% (Aug 10, 12:55 PM)29.62 "Hg (Aug 20, 2:35 PM)
Average74 °F79%29.99 "Hg
* Reported Aug 9 7:15 PM — Aug 24 7:15 PM, Gary, Weather by CustomWeather, © 2016

Note: Actual official high and low records may vary slightly from our data, if they occured in-between our weather recording intervals... More about our weather records

Advertising

Gary Weather History for the Previous 24 Hours

Scroll right to see more
 ConditionsComfort  
Time TempWeatherWind HumidityBarometerVisibility
7:15 PM
Wed, Aug 24
79 °FSunny.8 mph74%29.96 "Hg10 mi
6:55 PM81 °FSunny.8 mph71%29.96 "Hg10 mi
6:35 PM81 °FSunny.10 mph70%29.95 "Hg10 mi
6:15 PM81 °FScattered clouds.10 mph69%29.94 "Hg10 mi
5:55 PM82 °FScattered clouds.13 mph69%29.95 "Hg10 mi
5:35 PM82 °FScattered clouds.14 mph66%29.94 "Hg10 mi
5:15 PM82 °FScattered clouds.17 mph66%29.94 "Hg10 mi
4:55 PM81 °FScattered clouds.13 mph70%29.94 "Hg10 mi
4:35 PM81 °FSunny.18 mph69%29.94 "Hg10 mi
4:15 PM82 °FSunny.14 mph68%29.93 "Hg10 mi
3:55 PM81 °FSunny.13 mph76%29.93 "Hg10 mi
3:35 PM80 °FScattered clouds.12 mph79%29.93 "Hg10 mi
3:15 PM78 °FCloudy.8 mph84%29.94 "Hg10 mi
2:55 PM77 °FCloudy.No wind89%29.93 "Hg7 mi
2:35 PM76 °FRain. Mostly cloudy.5 mph90%29.93 "Hg1 mi
2:15 PM78 °FHeavy rain. Broken clouds.9 mph82%29.94 "Hg7 mi
1:55 PM79 °FMostly cloudy.12 mph82%29.94 "Hg10 mi
1:35 PM77 °FOvercast.10 mph84%29.95 "Hg10 mi
1:15 PM76 °FOvercast.10 mph85%29.96 "Hg10 mi
12:55 PM77 °FLow clouds.15 mph85%29.96 "Hg10 mi
12:35 PM76 °FLow clouds.14 mph87%29.97 "Hg10 mi
12:15 PM75 °FLow clouds.15 mph88%29.99 "Hg10 mi
11:55 AM74 °FLight rain. Low clouds.9 mph93%29.99 "Hg10 mi
11:35 AM72 °FHeavy rain. Mostly cloudy.8 mph92%30.00 "Hg3 mi
11:15 AM72 °FRain. Low clouds.9 mph91%30.03 "Hg7 mi
10:55 AM73 °FThundershowers. Low clouds.10 mph90%30.01 "Hg10 mi
10:35 AM73 °FLight rain. Mostly cloudy.9 mph90%30.00 "Hg10 mi
10:15 AM72 °FLight rain. Low clouds.14 mph92%30.01 "Hg7 mi
9:55 AM72 °FLight rain. Low clouds.10 mph92%30.02 "Hg7 mi
9:35 AM71 °FLight rain. Low clouds.6 mph91%30.04 "Hg7 mi
9:15 AM71 °FLight rain. Low clouds.7 mph91%30.03 "Hg7 mi
8:55 AM71 °FRain. Overcast.6 mph89%30.03 "Hg7 mi
8:35 AM72 °FLight rain. Overcast.8 mph86%30.04 "Hg10 mi
8:15 AM72 °FOvercast.14 mph85%30.04 "Hg10 mi
7:55 AM72 °FMostly cloudy.12 mph84%30.03 "Hg10 mi
7:35 AM71 °FPartly sunny.10 mph84%30.02 "Hg10 mi
7:15 AM71 °FPartly sunny.10 mph83%30.01 "Hg10 mi
6:55 AM71 °FPartly sunny.9 mph83%30.02 "Hg10 mi
6:35 AM69 °FScattered clouds.10 mph84%30.02 "Hg10 mi
6:15 AM69 °FScattered clouds.9 mph83%30.03 "Hg10 mi
5:55 AM69 °FPassing clouds.12 mph82%30.03 "Hg10 mi
5:35 AM70 °FPassing clouds.14 mph79%30.03 "Hg10 mi
5:15 AM70 °FPassing clouds.13 mph78%30.04 "Hg10 mi
4:55 AM70 °FPassing clouds.12 mph78%30.04 "Hg10 mi
4:35 AM70 °FClear.10 mph77%30.05 "Hg10 mi
4:15 AM70 °FPassing clouds.10 mph76%30.06 "Hg10 mi
3:55 AM70 °FPassing clouds.12 mph76%30.06 "Hg10 mi
3:15 AM70 °FOvercast.9 mph77%30.08 "Hg10 mi
2:55 AM70 °FOvercast.9 mph76%30.08 "Hg10 mi
2:35 AM70 °FOvercast.12 mph75%30.09 "Hg10 mi
2:15 AM70 °FOvercast.9 mph75%30.10 "Hg10 mi
1:55 AM70 °FOvercast.10 mph76%30.10 "Hg10 mi
1:35 AM70 °FOvercast.12 mph76%30.10 "Hg10 mi
1:15 AM70 °FMostly cloudy.10 mph75%30.10 "Hg10 mi
12:55 AM71 °FMostly cloudy.13 mph72%30.10 "Hg10 mi
12:35 AM71 °FOvercast.10 mph73%30.11 "Hg10 mi
12:15 AM71 °FOvercast.10 mph72%30.11 "Hg10 mi
11:55 PM
Tue, Aug 23
72 °FOvercast.9 mph71%30.11 "Hg10 mi
11:35 PM72 °FOvercast.9 mph69%30.11 "Hg10 mi
11:15 PM72 °FOvercast.8 mph70%30.11 "Hg10 mi
10:55 PM72 °FOvercast.6 mph71%30.11 "Hg10 mi
10:35 PM71 °FOvercast.6 mph72%30.12 "Hg10 mi
10:15 PM72 °FOvercast.6 mph72%30.12 "Hg10 mi
9:55 PM71 °FPassing clouds.7 mph72%30.12 "Hg10 mi
9:35 PM72 °FPassing clouds.7 mph70%30.13 "Hg10 mi
9:15 PM72 °FPartly cloudy.9 mph68%30.13 "Hg10 mi
8:55 PM74 °FOvercast.7 mph65%30.13 "Hg10 mi
8:35 PM74 °FOvercast.7 mph64%30.14 "Hg10 mi
8:15 PM73 °FOvercast.7 mph67%30.14 "Hg10 mi
Weather by CustomWeather, © 2016

See weather overviewHow to use our weather pages